Regional Weather Roundup
Issued by NWS

Home | Current Version | Previous Version | Graphics & Text | Print | Product List | Glossary On
Versions: 1 2 3 4 5 6 7 8 9 10 11 12 13 14 15 16 17 18 19 20 21 22 23 24 25 26 27 28 29 30 31 32 33 34 35 36 37 38 39 40 41 42 43 44 45 46 47 48 49 50
000
ASUS43 KDMX 121701
RWRIA

WEATHER ROUNDUP FOR IOWA
NATIONAL WEATHER SERVICE DES MOINES IA
1100 AM CST TUE DEC 12 2017

NOTE: "FAIR" INDICATES FEW OR NO CLOUDS BELOW 12,000 FEET WITH NO
SIGNIFICANT WEATHER AND/OR OBSTRUCTIONS TO VISIBILITY.

* - THESE STATIONS ARE NOT NWS STATIONS...THUS NOT UNDER NWS
QUALITY CONTROL.  THEY ALSO DO NOT REPORT WEATHER SUCH
AS PRECIPITATION OR FOG.

IAZ001>003-012>014-020>022-031>034-043>046-121800-
   NORTHWEST IOWA

CITY           SKY/WX    TMP DP  RH WIND       PRES   REMARKS
CARROLL *      SUNNY     25  14  63 W7        30.24F WCI  17
CHEROKEE *     SUNNY     26  18  72 W8        30.23S WCI  17
DENISON *      SUNNY     23  16  74 SW7       30.26F WCI  15
LE MARS *      SUNNY     28  19  69 SW8       30.22F WCI  20
ORANGE CITY *  SUNNY     27  21  80 W8        30.20S WCI  18
SHELDON *      CLOUDY    27  19  74 W9        30.18F WCI  17
SIOUX CITY     SUNNY     26  20  77 S3        30.25F
SPENCER        SUNNY     25  17  72 W7        30.20F WCI  17
STORM LAKE *   SUNNY     23  16  74 VRB6      30.20F WCI  16
$$

IAZ055>058-069>071-079>083-090>094-121800-
   SOUTHWEST IOWA

CITY           SKY/WX    TMP DP  RH WIND       PRES   REMARKS
ATLANTIC *     SUNNY     25  14  63 NW5       30.28F WCI  19
AUDUBON *      SUNNY     25  16  68 W3        30.26S
CLARINDA *     SUNNY     27  16  63 NW7         N/A  WCI  19
COUNCIL BLFS * SUNNY     27  18  69 CALM      30.27F
CRESTON *      SUNNY     25  12  58 W10       30.27F WCI  15
HARLAN  *      SUNNY     25  14  63 W7        30.29F WCI  17
LAMONI         SUNNY     25   8  48 W13       30.27F WCI  14
RED OAK *      SUNNY     27  14  59 W5        30.30F WCI  21
SHENANDOAH *   SUNNY     27  18  69 CALM      30.32F
$$

IAZ047>049-059>061-072>074-084-121800-
   CENTRAL IOWA

CITY           SKY/WX    TMP DP  RH WIND       PRES   REMARKS
AMES           SUNNY     22   8  55 NW9       30.25F WCI  12
ANKENY *       SUNNY     21   7  53 W9        30.28F WCI  11
BOONE *        SUNNY     23   7  50 VRB6G12   30.23F WCI  16
CHARITON *     PTSUNNY   23   9  54 NW7       30.27S WCI  15
DES MOINES     MOSUNNY   22   8  55 NW6       30.27F WCI  14
GRINNELL*      PTSUNNY   21   8  57 NW12      30.25F WCI   9
KNOXVILLE *    SUNNY     23   5  46 NW8G15    30.26F WCI  14
MARSHALLTOWN   SUNNY     20   7  57 NW12      30.23F WCI   8
NEWTON *       SUNNY     21   7  53 NW10      30.26F WCI  10
PELLA *        SUNNY     24   7  48 NW8       30.28F WCI  15
PERRY *          N/A     24   9  51 W6        30.26F WCI  17
$$

IAZ004>006-015-016-023>025-035-036-121800-
   NORTH CENTRAL IOWA

CITY           SKY/WX    TMP DP  RH WIND       PRES   REMARKS
ALGONA *       SUNNY     23  14  68 W8        30.18F WCI  14
CLARION *      SUNNY     19   7  58 NW9       30.21F WCI   9
ESTHERVILLE    SUNNY     23  17  78 SW9       30.16F WCI  13
FORT DODGE *   SUNNY     23  12  62 W7        30.22F WCI  15
MASON CITY     MOSUNNY   19   6  57 W12       30.19  WCI   7
FOREST CITY *    N/A     21  12  68 NW6       30.19F WCI  14
WEBSTER CITY * SUNNY     21   9  58 W9        30.20F WCI  11
IOWA FALLS *     N/A     20   9  61 NW8       30.24F WCI  10
$$

IAZ007>011-017>019-026>030-037>042-050>054-066-121800-
   NORTHEAST IOWA

CITY           SKY/WX    TMP DP  RH WIND       PRES   REMARKS
CEDAR RAPIDS   SUNNY     20   9  62 NW14      30.21F WCI   7
CHARLES CITY * MOSUNNY   18   7  62 W13       30.19F WCI   4
CLINTON *      SUNNY     22  12  65 W14       30.18F WCI   9
DECORAH *      SUNNY     16   5  62 NW6       30.14F WCI   7
DUBUQUE        SUNNY     17   6  62 NW12      30.15F WCI   4
MONTICELLO *   SUNNY     21   7  53 NW13      30.18F WCI   9
OELWEIN *      SUNNY     18   7  62 W13       30.17F WCI   4
WATERLOO       MOSUNNY   19   6  57 W12       30.21F WCI   7
$$

IAZ064-065-067-068-078-121800-
   EAST CENTRAL IOWA

CITY           SKY/WX    TMP DP  RH WIND       PRES   REMARKS
DAVENPORT      SUNNY     22  11  62 NW14      30.22S WCI   9
IOWA CITY      SUNNY     22   8  55 NW13      30.25F WCI  10
MT. PLEASANT * SUNNY     23   8  50 W9        30.25S WCI  13
MUSCATINE *    CLOUDY    23   9  54 NW13      30.25F WCI  11
QUAD CITIES    SUNNY     23  10  57 NW15G22   30.21S WCI  10
$$

IAZ062-063-075>077-085>089-095>099-121800-
   SOUTHEAST IOWA

CITY           SKY/WX    TMP DP  RH WIND       PRES   REMARKS
BURLINGTON     SUNNY     24  10  55 NW10      30.23F WCI  14
FAIRFIELD *    SUNNY     23   5  46 W12G20    30.25S WCI  12
FORT MADISON * SUNNY     25  10  54 NW14      30.25S WCI  13
KEOKUK *       SUNNY     25   7  46 NW10      30.25S WCI  15
OSKALOOSA *      N/A     23   7  50 NW13G18   30.27S WCI  11
OTTUMWA        SUNNY     25   4  40 NW13      30.26F WCI  14
WASHINGTON *   MOSUNNY   23  10  58 NW13      30.26F WCI  11
$$

ABBREVIATIONS USED IN REMARKS
   TC - TEMPERATURES IN CELSIUS
  WCI - WIND CHILL INDEX
   HX - HEAT INDEX
  VSB - VISIBILITY
$$





USA.gov is the U.S. government's official web portal to all federal, state and local government web resources and services.